IT9GFD-13 Weather Reports


time (UTC)temp
C
wind
direction
speed
KPH
gust
KPH
rain 1hr
cm
rain 24hr
cm
rain mn
cm
humidity
%
barometer
mb
20260508004016 18 113 3.2 11.3 0.00 0.00 0.00 83 1011.2
20260508003036 18 90 4.8 11.3 0.00 0.00 0.00 83 1011.5
20260508002015 18 135 1.6 8.0 0.00 0.00 0.00 84 1011.3
20260508001036 18 113 3.2 12.9 0.00 0.00 0.00 84 1011.2
20260508000016 18 90 6.4 14.5 0.00 0.00 0.00 85 1011.3
20260507235016 18 135 6.4 17.7 0.00 0.00 0.00 85 1011.6
20260507234015 18 158 6.4 19.3 0.00 0.00 0.00 85 1012.1
20260507233043 18 90 9.7 19.3 0.00 0.00 0.00 85 1012.2
20260507232016 18 90 9.7 20.9 0.00 0.00 0.00 85 1012.3
20260507231036 18 90 9.7 22.5 0.00 0.00 0.00 85 1012.2
20260507230016 18 90 8.0 19.3 0.00 0.00 0.00 84 1011.9
20260507225015 18 68 8.0 20.9 0.00 0.00 0.00 83 1011.7
20260507224020 18 90 1.6 11.3 0.00 0.00 0.00 82 1011.5
20260507223015 18 90 3.2 9.7 0.00 0.00 0.00 81 1011.8
20260507222016 18 135 3.2 17.7 0.00 0.00 0.00 81 1011.6
20260507221016 18 135 6.4 16.1 0.00 0.00 0.00 80 1011.5
20260507220016 18 113 4.8 12.9 0.00 0.00 0.00 80 1011.5
20260507215015 18 68 4.8 12.9 0.00 0.00 0.00 79 1011.5
20260507214015 18 90 4.8 12.9 0.00 0.00 0.00 78 1011.5
20260507213016 19 68 6.4 14.5 0.00 0.00 0.00 78 1011.7
20260507212017 19 113 8.0 22.5 0.00 0.00 0.00 77 1011.8
20260507211018 19 90 9.7 22.5 0.00 0.00 0.00 77 1011.9
20260507210017 19 90 9.7 19.3 0.00 0.00 0.00 77 1011.9
20260507205117 19 113 9.7 25.7 0.00 0.00 0.00 77 1011.4
20260507204017 19 113 8.0 17.7 0.00 0.00 0.00 76 1011.3
20260507203017 19 135 4.8 17.7 0.00 0.00 0.00 75 1011.4
20260507202017 19 113 8.0 19.3 0.00 0.00 0.00 75 1011.3
20260507201017 19 113 8.0 14.5 0.00 0.00 0.00 75 1011.3
20260507200017 19 135 9.7 22.5 0.00 0.00 0.00 74 1011.3
20260507195017 19 113 8.0 16.1 0.00 0.00 0.00 73 1011.2
20260507194017 19 113 8.0 19.3 0.00 0.00 0.00 73 1010.9
20260507193017 19 90 8.0 16.1 0.00 0.00 0.00 72 1010.9
20260507192017 19 113 11.3 20.9 0.00 0.00 0.00 72 1010.8
20260507191017 20 90 6.4 14.5 0.00 0.00 0.00 72 1010.8
20260507190017 20 90 8.0 16.1 0.00 0.00 0.00 71 1010.6
20260507185017 20 68 8.0 17.7 0.00 0.00 0.00 71 1010.4
20260507184017 20 113 9.7 22.5 0.00 0.00 0.00 70 1010.2
20260507183017 20 90 11.3 22.5 0.00 0.00 0.00 70 1010.0
20260507182017 20 90 11.3 20.9 0.00 0.00 0.00 69 1009.9
20260507181017 20 90 11.3 25.7 0.00 0.00 0.00 70 1010.1
20260507180017 20 90 14.5 32.2 0.00 0.00 0.00 70 1009.9
20260507175017 20 90 14.5 27.4 0.00 0.00 0.00 70 1010.0
20260507174017 20 113 8.0 19.3 0.00 0.00 0.00 70 1010.1
20260507173017 20 90 12.9 25.7 0.00 0.00 0.00 70 1010.2
20260507172017 20 113 11.3 25.7 0.00 0.00 0.00 70 1010.2
20260507171017 20 113 12.9 25.7 0.00 0.00 0.00 70 1009.8
20260507170017 20 113 12.9 24.1 0.00 0.00 0.00 69 1009.8
20260507165017 20 113 14.5 32.2 0.00 0.00 0.00 69 1009.4
20260507164017 20 113 12.9 30.6 0.00 0.00 0.00 68 1009.3
20260507163017 20 113 16.1 30.6 0.00 0.00 0.00 68 1009.4
20260507162017 20 135 14.5 30.6 0.00 0.00 0.00 68 1009.2
20260507161058 20 113 16.1 37.0 0.00 0.00 0.00 67 1009.3
20260507160017 21 90 12.9 27.4 0.00 0.00 0.00 65 1009.3
20260507155017 21 90 17.7 33.8 0.00 0.00 0.00 65 1009.3
20260507154017 21 68 12.9 30.6 0.00 0.00 0.00 65 1008.9
20260507153016 21 68 14.5 29.0 0.00 0.00 0.00 64 1009.1
20260507152017 21 68 12.9 32.2 0.00 0.00 0.00 63 1009.0
20260507151037 21 68 9.7 22.5 0.00 0.00 0.00 62 1009.0
20260507150016 21 68 12.9 29.0 0.00 0.00 0.00 62 1009.1
20260507145017 22 203 8.0 22.5 0.00 0.00 0.00 61 1009.2
20260507144017 22 135 8.0 16.1 0.00 0.00 0.00 59 1009.1
20260507143017 22 113 11.3 29.0 0.00 0.00 0.00 59 1009.1
20260507142017 22 180 8.0 24.1 0.00 0.00 0.00 59 1009.5
20260507141017 22 90 8.0 20.9 0.00 0.00 0.00 58 1009.8
20260507140017 22 90 12.9 33.8 0.00 0.00 0.00 57 1009.6
20260507135037 22 113 11.3 30.6 0.00 0.00 0.00 56 1009.8
20260507134017 22 113 9.7 32.2 0.00 0.00 0.00 56 1009.8
20260507133036 22 113 8.0 25.7 0.00 0.00 0.00 56 1009.9
20260507132017 23 90 12.9 24.1 0.00 0.00 0.00 54 1009.8
20260507131017 23 113 12.9 25.7 0.00 0.00 0.00 52 1009.5
20260507130016 23 90 14.5 29.0 0.00 0.00 0.00 52 1009.6
20260507125037 23 90 16.1 27.4 0.00 0.00 0.00 50 1009.3
20260507124037 23 90 9.7 25.7 0.00 0.00 0.00 50 1009.3
20260507123016 23 68 11.3 30.6 0.00 0.00 0.00 49 1009.0
20260507122017 24 113 14.5 27.4 0.00 0.00 0.00 48 1008.9
20260507121017 24 113 11.3 27.4 0.00 0.00 0.00 44 1008.6
20260507120016 24 90 9.7 22.5 0.00 0.00 0.00 45 1008.6
20260507115017 25 90 14.5 27.4 0.00 0.00 0.00 43 1008.7
20260507114017 25 113 11.3 25.7 0.00 0.00 0.00 39 1008.6
20260507113056 25 90 9.7 20.9 0.00 0.00 0.00 42 1008.3
20260507112016 24 90 14.5 32.2 0.00 0.00 0.00 39 1008.5
20260507111016 24 113 14.5 30.6 0.00 0.00 0.00 40 1008.3
20260507110016 24 90 9.7 24.1 0.00 0.00 0.00 40 1007.4
20260507105017 24 135 11.3 25.7 0.00 0.00 0.00 42 1006.4
20260507104016 24 90 11.3 29.0 0.00 0.00 0.00 40 1006.5
20260507103016 24 113 14.5 25.7 0.00 0.00 0.00 39 1006.9
20260507102017 24 135 11.3 27.4 0.00 0.00 0.00 40 1007.6
20260507101016 24 90 12.9 25.7 0.00 0.00 0.00 40 1008.0
20260507100016 24 90 12.9 30.6 0.00 0.00 0.00 40 1007.5
20260507095016 24 90 9.7 25.7 0.00 0.00 0.00 40 1008.2
20260507094016 23 90 16.1 29.0 0.00 0.00 0.00 40 1008.9
20260507093016 23 90 11.3 29.0 0.00 0.00 0.00 42 1009.8
20260507092016 23 113 14.5 32.2 0.00 0.00 0.00 42 1011.1
20260507091016 23 113 14.5 27.4 0.00 0.00 0.00 43 1010.7
20260507090036 23 135 12.9 29.0 0.00 0.00 0.00 45 1010.1
20260507085016 23 113 11.3 27.4 0.00 0.00 0.00 44 1010.0
20260507084016 22 90 11.3 24.1 0.00 0.00 0.00 47 1010.5
20260507083037 22 90 9.7 19.3 0.00 0.00 0.00 47 1011.4
20260507082017 22 113 9.7 22.5 0.00 0.00 0.00 49 1011.5
20260507081016 22 68 9.7 19.3 0.00 0.00 0.00 52 1011.1
20260507080016 22 113 11.3 27.4 0.00 0.00 0.00 50 1010.0
20260507075016 22 158 8.0 25.7 0.00 0.00 0.00 47 1010.6
20260507074016 22 90 9.7 20.9 0.00 0.00 0.00 48 1011.9
20260507073016 21 113 8.0 22.5 0.00 0.00 0.00 48 1013.6
20260507072036 21 113 6.4 14.5 0.00 0.00 0.00 50 1014.5
20260507071016 21 113 9.7 22.5 0.00 0.00 0.00 52 1014.6
20260507070016 20 90 9.7 16.1 0.00 0.00 0.00 56 1014.6
20260507065036 18 23 1.6 6.4 0.00 0.00 0.00 74 1014.8
20260507064016 18 315 4.8 11.3 0.00 0.00 0.00 76 1015.1
20260507063016 17 293 3.2 9.7 0.00 0.00 0.00 75 1015.2
20260507062016 17 0.0 0.0 0.00 0.00 0.00 78 1015.1
20260507061036 17 0.0 0.0 0.00 0.00 0.00 79 1015.3
20260507060016 17 0.0 0.0 0.00 0.00 0.00 80 1015.2
20260507055016 17 0.0 0.0 0.00 0.00 0.00 80 1015.3
20260507054016 17 0.0 0.0 0.00 0.00 0.00 80 1015.2
20260507053016 17 0.0 0.0 0.00 0.00 0.00 81 1015.4
20260507052016 17 0.0 0.0 0.00 0.00 0.00 82 1015.3
20260507051016 17 90 1.6 4.8 0.00 0.00 0.00 82 1015.4
20260507050016 17 0.0 3.2 0.00 0.00 0.00 82 1015.3
20260507045016 17 113 1.6 4.8 0.00 0.00 0.00 82 1015.3
20260507044016 17 0.0 3.2 0.00 0.00 0.00 81 1015.6
20260507043016 17 0.0 0.0 0.00 0.00 0.00 80 1015.5
20260507042016 17 113 4.8 11.3 0.00 0.00 0.00 77 1015.7
20260507041016 18 90 1.6 6.4 0.00 0.00 0.00 71 1015.7
20260507040016 17 0.0 0.0 0.00 0.00 0.00 65 1015.6
20260507035016 17 0.0 6.4 0.00 0.00 0.00 66 1015.4
20260507034016 17 203 1.6 11.3 0.00 0.00 0.00 68 1015.3
20260507033016 17 0.0 0.0 0.00 0.00 0.00 70 1015.3
20260507032016 17 0.0 3.2 0.00 0.00 0.00 73 1015.1
20260507031016 17 0.0 0.0 0.00 0.00 0.00 74 1015.3
20260507030016 17 0.0 0.0 0.00 0.00 0.00 76 1015.3
20260507025036 17 0.0 0.0 0.00 0.00 0.00 78 1015.3
20260507024016 17 90 1.6 6.4 0.00 0.00 0.00 80 1015.0
20260507023016 17 0.0 3.2 0.00 0.00 0.00 83 1015.2
20260507022016 17 45 1.6 4.8 0.00 0.00 0.00 85 1015.3
20260507021015 17 293 1.6 4.8 0.00 0.00 0.00 86 1015.6
20260507020016 17 315 1.6 4.8 0.00 0.00 0.00 86 1015.6
20260507015016 17 0.0 6.4 0.00 0.00 0.00 87 1015.4
20260507014015 17 90 4.8 11.3 0.00 0.00 0.00 86 1015.2
20260507013015 17 90 4.8 12.9 0.00 0.00 0.00 86 1015.7
20260507012016 17 113 3.2 11.3 0.00 0.00 0.00 86 1015.8
20260507011016 17 135 9.7 17.7 0.00 0.00 0.00 85 1015.7
20260507010016 17 68 8.0 16.1 0.00 0.00 0.00 85 1015.8
20260507005016 17 68 4.8 12.9 0.00 0.00 0.00 84 1015.8